Location: Санкт-Петербург
(59.9358°N, 30.3401°E)
Time: 18:34:21
(UTC+03:00)

ISS - Pass Details

Date: 02 February 2021
Orbit: 417 x 422 km, 51.6° (Epoch: 18 May)

Event Time Altitude Azimuth Distance (km) Brightness Sun altitude
Rises 18:17:14 0° 257° (WSW) 2,373 2.4 -7.7°
Reaches altitude 10° 18:19:46 10° 237° (WSW) 1,509 0.6 -8.0°
Maximum altitude 18:22:09 18° 193° (SSW) 1,117 -1.2 -8.2°
Drops below altitude 10° 18:24:31 10° 148° (SSE) 1,509 -1.1 -8.5°
Enters shadow 18:27:20 -1° 128° (SE) 2,472 -0.2 -8.8°
